Regional Weather Roundup
Issued by NWS Cleveland, OH

Home | Current Version | Previous Version | Graphics & Text | Print | Product List | Glossary On
Versions: 1 2 3 4 5 6 7 8 9 10 11 12 13 14 15 16 17 18 19 20 21 22 23 24 25 26 27 28 29 30 31 32 33 34 35 36 37 38 39 40 41 42 43 44 45 46 47 48 49 50
000
ASUS41 KCLE 210902
RWRCLE
OHIO REGIONAL WEATHER ROUNDUP
NATIONAL WEATHER SERVICE CLEVELAND, OH
500 AM EDT SUN SEP 21 2014

NOTE: "FAIR" INDICATES FEW OR NO CLOUDS BELOW 12,000 FEET WITH NO
SIGNIFICANT WEATHER AND/OR OBSTRUCTIONS TO VISIBILITY.

OHZ001>008-015>018-024>027-034-035-043-044-211000-
   NORTHWEST OHIO

CITY           SKY/WX    TMP DP  RH WIND       PRES   REMARKS
DEFIANCE       MOCLDY   N/A N/A N/A SW12G21   29.69F
FINDLAY        CLOUDY    70  66  87 SW15G22   29.70F
TOLEDO EXPRESS MOCLDY    66  64  93 SW14      29.66F
TOLEDO EXEC    MOCLDY    68  64  87 SW12      29.67F
LIMA           CLOUDY    70  66  87 SW14G20   29.74F FOG
$$

OHZ009>014-019>023-028>033-038-089-211000-
   NORTHEAST OHIO

CITY           SKY/WX    TMP DP  RH WIND       PRES   REMARKS
CLE-HOPKINS    TSTM      67  64  90 SW10      29.75F
CLE-LAKEFRONT  RAIN      69  64  84 S12       29.72F
CUY CO. ARPT   NOT AVBL
LORAIN-ELYRIA  CLOUDY    70  67  90 S5        29.73F FOG
ASHTABULA      MOCLDY    67  62  84 S10       29.75F
AKRON-CANTON   CLOUDY    69  62  78 SW16G22   29.78F
WOOSTER        CLOUDY    68  63  84 SW9       29.77F
MANSFIELD      LGT RAIN  69  65  86 SW16      29.75F
YOUNGSTOWN     CLOUDY    66  62  87 S8        29.79F
$$

OHZ042-051>053-060>062-070>072-077>081-211000-
  SOUTHWEST OHIO

CITY           SKY/WX    TMP DP  RH WIND       PRES   REMARKS
CINC-COVINGTON CLOUDY    71  64  78 SW10      29.84F
CINC-LUNKEN    CLOUDY    70  65  84 SW7       29.83F
HAMILTON       CLOUDY    71  65  81 VRB6      29.82F
DAYTON         CLOUDY    71  65  81 SW17G25   29.80F
WRIGHT-PAT AFB CLOUDY    72  65  78 SW18      29.79F
DAYTON GENERAL CLOUDY    72  65  78 SW14      29.81F
WILMINGTON     MOCLDY    68  63  84 SW13      29.82F
$$

OHZ036-037-039>041-045>050-054>059-063>069-073>076-082>088-211000-
  CENTRAL AND SOUTHEAST OHIO

CITY           SKY/WX    TMP DP  RH WIND       PRES   REMARKS
COLUMBUS       MOCLDY    71  63  75 S9        29.80F
OSU AIRPORT    CLOUDY    70  64  81 SW13      29.79F
BOLTON FIELD   MOCLDY    69  65  86 S9G16     29.80F
RICKENBACK AFB MOCLDY    68  63  85 S10       29.80F
NEWARK         PTCLDY    70  63  78 SW7       29.80F
MARION         CLOUDY    70  64  81 SW14G21   29.75F
LANCASTER      MOCLDY    70  63  78 SW9       29.82F
ZANESVILLE     PTCLDY    68  62  81 S7        29.83F
NEW PHILLY     MOCLDY    69  64  84 S6        29.81F
$$


USA.gov is the U.S. government's official web portal to all federal, state and local government web resources and services.